Location: Malanoce
(44.2500°N, 7.4667°E)
Time: 02:26:17
(UTC+00:00)

BlueWalker 3 - Visible Passes

Search period start: 19 January 2026 00:00
Search period end: 29 January 2026 00:00
Orbit: 451 x 463 km, 53.2° (Epoch: 18 January)

Date Brightness Start Highest point End Pass type
(mag) Time Alt. Az. Time Alt. Az. Time Alt. Az.
19 Jan 3.5 18:31:26 10° SSW 18:33:08 23° S 18:33:08 23° S visible
20 Jan 2.8 17:56:20 10° SSW 17:59:27 29° SE 17:59:36 29° SE visible
21 Jan 3.2 17:21:19 10° S 17:24:09 22° SE 17:26:00 15° E visible
21 Jan 3.8 18:57:54 10° WSW 18:59:45 27° W 18:59:45 27° W visible
22 Jan 1.8 18:22:27 10° WSW 18:26:00 68° NNW 18:26:03 68° NNW visible
23 Jan 1.6 17:47:00 10° SW 17:50:35 86° NNW 17:52:17 29° NE visible
23 Jan 4.9 19:25:28 10° WNW 19:26:01 13° WNW 19:26:01 13° WNW visible
24 Jan 1.7 17:11:37 10° SW 17:15:10 74° SE 17:18:26 12° ENE visible
24 Jan 3.7 18:49:51 10° WNW 18:52:10 25° NW 18:52:10 25° NW visible
25 Jan 3.1 18:14:13 10° W 18:17:25 30° NNW 18:18:15 27° N visible
26 Jan 2.9 17:38:35 10° W 17:41:54 35° NNW 17:44:17 16° NE visible
26 Jan 4.8 19:17:30 10° NW 19:18:01 12° NW 19:18:01 12° NW visible
27 Jan 2.6 17:02:58 10° W 17:06:22 41° NNW 17:09:47 10° NE visible
27 Jan 3.9 18:41:52 10° NW 18:44:01 19° NNW 18:44:01 19° NNW visible
28 Jan 3.6 18:06:12 10° WNW 18:08:57 20° N 18:09:59 18° NNE visible
